• En España
  • Lista de países
  • Para 7 días
  • Temperatura del agua
  • Mapa Satelital
  • El tiempo en el mapa
  • Informadores
  • user-avatar
    Iniciar sesión

    Tiempo cada hora Merzouga

    Hoy, 16 Octubre, Martes

    Tiempo Temperatura Precipitaciones Viento Presión Humedad
    00:00 +26°C° 0 mm 2 mps 697 mmHg 23%
    01:00 +26°C° 0 mm 2 mps 696 mmHg 25%
    02:00 +25°C° 0 mm 3 mps 696 mmHg 28%
    03:00 +25°C° 0 mm 4 mps 696 mmHg 31%
    04:00 +23°C° 0 mm 4 mps 696 mmHg 33%
    05:00 +22°C° 0 mm 4 mps 696 mmHg 36%
    06:00 +22°C° 0 mm 4 mps 696 mmHg 38%
    07:00 +23°C° 0 mm 5 mps 697 mmHg 36%
    08:00 +25°C° 0 mm 5 mps 697 mmHg 33%
    09:00 +26°C° 0 mm 5 mps 698 mmHg 30%
    10:00 +27°C° 0 mm 5 mps 698 mmHg 27%
    11:00 +28°C° 0 mm 4 mps 698 mmHg 24%
    12:00 +29°C° 0 mm 3 mps 698 mmHg 21%
    13:00 +30°C° 0 mm 3 mps 697 mmHg 20%
    14:00 +30°C° 0 mm 2 mps 697 mmHg 18%
    15:00 +31°C° 0 mm 2 mps 697 mmHg 17%
    16:00 +30°C° 0 mm 2 mps 697 mmHg 18%
    17:00 +30°C° 0 mm 2 mps 697 mmHg 18%
    18:00 +29°C° 0 mm 2 mps 697 mmHg 19%
    19:00 +29°C° 0 mm 3 mps 697 mmHg 21%
    20:00 +28°C° 0 mm 5 mps 698 mmHg 23%
    21:00 +27°C° 0 mm 6 mps 698 mmHg 25%
    22:00 +26°C° 0 mm 7 mps 698 mmHg 29%
    23:00 +24°C° 0 mm 8 mps 698 mmHg 32%

    Mañana, 17 Octubre, Miércoles

    Tiempo Temperatura Precipitaciones Viento Presión Humedad
    00:00 +23°C° 0 mm 8 mps 698 mmHg 36%
    01:00 +22°C° 0 mm 8 mps 698 mmHg 39%
    02:00 +22°C° 0 mm 7 mps 698 mmHg 42%
    03:00 +21°C° 0 mm 7 mps 698 mmHg 45%
    04:00 +21°C° 0 mm 7 mps 698 mmHg 47%
    05:00 +20°C° 0 mm 6 mps 698 mmHg 50%
    06:00 +20°C° 0 mm 6 mps 698 mmHg 52%
    07:00 +20°C° 0 mm 6 mps 699 mmHg 49%
    08:00 +21°C° 0 mm 6 mps 699 mmHg 47%
    09:00 +22°C° 0 mm 6 mps 700 mmHg 44%
    10:00 +23°C° 0 mm 5 mps 700 mmHg 40%
    11:00 +25°C° 0 mm 4 mps 700 mmHg 37%
    12:00 +26°C° 0 mm 4 mps 699 mmHg 33%
    13:00 +27°C° 0 mm 3 mps 699 mmHg 31%
    14:00 +27°C° 0 mm 2 mps 699 mmHg 29%
    15:00 +28°C° 0 mm 2 mps 698 mmHg 27%
    16:00 +27°C° 0 mm 2 mps 698 mmHg 27%
    17:00 +27°C° 0 mm 1 mps 698 mmHg 28%
    18:00 +27°C° 0 mm 1 mps 698 mmHg 28%
    19:00 +27°C° 0 mm 2 mps 698 mmHg 29%
    20:00 +26°C° 0 mm 2 mps 699 mmHg 30%
    21:00 +26°C° 0 mm 2 mps 699 mmHg 32%
    22:00 +25°C° 0 mm 3 mps 699 mmHg 34%
    23:00 +24°C° 0 mm 3 mps 698 mmHg 36%

    Pasado mañana, 18 Octubre, Jueves

    Tiempo Temperatura Precipitaciones Viento Presión Humedad
    00:00 +24°C° 0 mm 3 mps 698 mmHg 39%
    01:00 +22°C° 0 mm 3 mps 698 mmHg 40%
    02:00 +21°C° 0 mm 3 mps 697 mmHg 42%
    03:00 +21°C° 0 mm 3 mps 697 mmHg 44%
    04:00 +20°C° 0 mm 3 mps 697 mmHg 45%
    05:00 +20°C° 0 mm 2 mps 696 mmHg 46%
    06:00 +20°C° 0 mm 2 mps 696 mmHg 47%
    07:00 +21°C° 0 mm 3 mps 696 mmHg 43%
    08:00 +22°C° 0 mm 4 mps 696 mmHg 40%
    09:00 +23°C° 0 mm 5 mps 696 mmHg 37%
    10:00 +24°C° 0 mm 6 mps 696 mmHg 33%
    11:00 +27°C° 0 mm 7 mps 696 mmHg 30%
    12:00 +28°C° 0 mm 8 mps 695 mmHg 26%
    13:00 +29°C° 0 mm 8 mps 695 mmHg 24%
    14:00 +31°C° 0 mm 8 mps 694 mmHg 22%
    15:00 +31°C° 0 mm 9 mps 693 mmHg 20%
    16:00 +31°C° 0 mm 8 mps 693 mmHg 21%
    17:00 +29°C° 0 mm 7 mps 693 mmHg 21%
    18:00 +29°C° 0 mm 6 mps 693 mmHg 21%
    19:00 +27°C° 0 mm 7 mps 693 mmHg 25%
    20:00 +26°C° 0 mm 7 mps 693 mmHg 29%
    21:00 +23°C° 0 mm 7 mps 694 mmHg 33%
    22:00 +22°C° 0 mm 8 mps 694 mmHg 35%
    23:00 +21°C° 0 mm 8 mps 694 mmHg 36%

    19 Octubre, Viernes

    Tiempo Temperatura Precipitaciones Viento Presión Humedad
    00:00 +19°C° 0 mm 9 mps 694 mmHg 38%
    01:00 +18°C° 0 mm 9 mps 694 mmHg 38%
    02:00 +18°C° 0 mm 8 mps 693 mmHg 38%
    03:00 +17°C° 0 mm 8 mps 693 mmHg 38%
    04:00 +17°C° 0 mm 8 mps 693 mmHg 40%
    05:00 +16°C° 0 mm 8 mps 694 mmHg 42%
    06:00 +16°C° 0 mm 7 mps 694 mmHg 44%
    07:00 +17°C° 0 mm 7 mps 694 mmHg 42%
    08:00 +18°C° 0 mm 8 mps 695 mmHg 41%
    09:00 +20°C° 0 mm 8 mps 695 mmHg 39%
    10:00 +21°C° 0 mm 7 mps 695 mmHg 37%
    11:00 +22°C° 0 mm 7 mps 695 mmHg 34%
    12:00 +24°C° 0 mm 7 mps 695 mmHg 31%
    13:00 +24°C° 0 mm 6 mps 694 mmHg 30%
    14:00 +26°C° 0 mm 5 mps 694 mmHg 28%
    15:00 +27°C° 0 mm 4 mps 693 mmHg 26%
    16:00 +26°C° 0 mm 4 mps 693 mmHg 27%
    17:00 +26°C° 0 mm 3 mps 693 mmHg 28%
    18:00 +25°C° 0 mm 3 mps 694 mmHg 29%
    19:00 +25°C° 0 mm 3 mps 694 mmHg 30%
    20:00 +24°C° 0 mm 3 mps 694 mmHg 32%
    21:00 +24°C° 0 mm 3 mps 695 mmHg 33%
    22:00 +22°C° 0 mm 3 mps 695 mmHg 34%
    23:00 +22°C° 0 mm 3 mps 695 mmHg 36%

    20 Octubre, Sábado

    Tiempo Temperatura Precipitaciones Viento Presión Humedad
    00:00 +21°C° 0 mm 3 mps 694 mmHg 37%
    01:00 +21°C° 0 mm 3 mps 694 mmHg 37%
    02:00 +20°C° 0 mm 2 mps 694 mmHg 38%
    03:00 +20°C° 0 mm 2 mps 694 mmHg 39%
    04:00 +19°C° 0 mm 2 mps 695 mmHg 40%
    05:00 +19°C° 0 mm 2 mps 695 mmHg 41%
    06:00 +19°C° 0 mm 2 mps 695 mmHg 42%
    07:00 +21°C° 0 mm 1 mps 696 mmHg 39%
    08:00 +22°C° 0 mm 1 mps 697 mmHg 36%
    09:00 +23°C° 0 mm 1 mps 697 mmHg 33%
    10:00 +25°C° 0 mm 2 mps 697 mmHg 29%
    11:00 +26°C° 0 mm 3 mps 698 mmHg 24%
    12:00 +27°C° 0 mm 5 mps 698 mmHg 20%
    13:00 +28°C° 0 mm 5 mps 698 mmHg 18%
    14:00 +29°C° 0 mm 6 mps 698 mmHg 17%
    15:00 +29°C° 0 mm 7 mps 697 mmHg 15%
    16:00 +28°C° 0 mm 6 mps 698 mmHg 16%
    17:00 +27°C° 0 mm 5 mps 698 mmHg 17%
    18:00 +27°C° 0 mm 4 mps 698 mmHg 19%
    19:00 +26°C° 0 mm 4 mps 698 mmHg 20%
    20:00 +25°C° 0 mm 4 mps 699 mmHg 22%
    21:00 +25°C° 0 mm 4 mps 699 mmHg 23%
    22:00 +24°C° 0 mm 3 mps 699 mmHg 25%
    23:00 +22°C° 0 mm 3 mps 699 mmHg 27%

    21 Octubre, Domingo

    Tiempo Temperatura Precipitaciones Viento Presión Humedad
    00:00 +22°C° 0 mm 3 mps 700 mmHg 29%
    01:00 +21°C° 0 mm 3 mps 699 mmHg 32%
    02:00 +21°C° 0 mm 2 mps 699 mmHg 34%
    03:00 +20°C° 0 mm 2 mps 699 mmHg 36%
    04:00 +20°C° 0 mm 2 mps 699 mmHg 38%
    05:00 +19°C° 0 mm 2 mps 700 mmHg 40%
    06:00 +19°C° 0 mm 2 mps 700 mmHg 41%
    07:00 +20°C° 0 mm 2 mps 700 mmHg 39%
    08:00 +21°C° 0 mm 2 mps 701 mmHg 36%
    09:00 +23°C° 0 mm 2 mps 702 mmHg 33%
    10:00 +25°C° 0 mm 2 mps 702 mmHg 30%
    11:00 +26°C° 0 mm 3 mps 702 mmHg 27%
    12:00 +27°C° 0 mm 3 mps 702 mmHg 24%
    13:00 +27°C° 0 mm 3 mps 702 mmHg 22%
    14:00 +28°C° 0 mm 3 mps 701 mmHg 20%
    15:00 +28°C° 0 mm 4 mps 701 mmHg 18%
    16:00 +28°C° 0 mm 3 mps 701 mmHg 18%
    17:00 +27°C° 0 mm 3 mps 701 mmHg 19%
    18:00 +26°C° 0 mm 2 mps 702 mmHg 19%
    19:00 +26°C° 0 mm 2 mps 702 mmHg 20%
    20:00 +25°C° 0 mm 2 mps 702 mmHg 21%
    21:00 +25°C° 0 mm 2 mps 702 mmHg 22%
    22:00 +24°C° 0 mm 2 mps 702 mmHg 24%
    23:00 +23°C° 0 mm 2 mps 702 mmHg 26%
    Mostrar más